User: anonymous   Login
Location: Unspecified
(0.0000°N, 0.0000°E)
Time: 14:17:07
(UTC+00:00)
Language:

Telecom 1B - Orbit

View from above orbital plane
View from above orbital plane
View from above satellite
View from above satellite

Ground track
Ground track

The orbit data is extracted from the following two-line orbital elements,

1 15678U 85035B   18114.30877632 -.00000266 +00000-0 +00000-0 0  9994
2 15678 014.3401 346.4479 0004606 332.1554 287.2572 01.00170365107170
Epoch (UTC): 24 April 2018 07:24:38
Eccentricity: 0.0004606
inclination: 14.3401°
perigee height: 35795 km
apogee height: 35834 km
right ascension of ascending node: 346.4479°
argument of perigee: 332.1554°
revolutions per day: 1.00170365
mean anomaly at epoch: 287.2572°
orbit number at epoch: 10717

The dashed part of the orbit path shows where the satellite is in the earth's shadow,  

DLR